CHP25 KTRM-KTRM

Flight info

Callsign CHP25
Flight time 0h 50m
Altitude 10000
Route V
Aircraft AS50/L-VGD/C

Departure

Time 2026-04-23 08:35
Airport Jacqueline Cochran Regional Airport (KTRM)

Arrival

Time 2026-04-23 09:25
Airport Jacqueline Cochran Regional Airport (KTRM)
Time Latitude Longitude Altitude Speed Heading
2026-04-23 08:30 33.63469 -116.16787 -120 ft 0 kts
2026-04-23 08:34 33.63471 -116.16786 -112 ft 0 kts 212°
2026-04-23 08:34 33.63470 -116.16786 -111 ft 0 kts 219°
2026-04-23 08:34 33.63405 -116.16798 -31 ft 11 kts 231°
2026-04-23 08:34 33.63351 -116.16840 78 ft 8 kts 232°
2026-04-23 08:35 33.63402 -116.17190 283 ft 85 kts 278°
2026-04-23 08:35 33.63464 -116.17850 853 ft 56 kts 277°
2026-04-23 08:35 33.63502 -116.18379 1463 ft 76 kts 265°
2026-04-23 08:35 33.63498 -116.19024 2141 ft 77 kts 277°
2026-04-23 08:36 33.63628 -116.19641 2655 ft 89 kts 277°
2026-04-23 08:36 33.63691 -116.20405 3181 ft 87 kts 269°
2026-04-23 08:36 33.63648 -116.21152 3594 ft 96 kts 272°
2026-04-23 08:36 33.63955 -116.21999 3648 ft 118 kts 301°
2026-04-23 08:37 33.64544 -116.22750 3610 ft 131 kts 312°
2026-04-23 08:37 33.65190 -116.23637 3293 ft 148 kts 309°
2026-04-23 08:37 33.65698 -116.24551 3600 ft 126 kts 303°
2026-04-23 08:37 33.66215 -116.25371 3818 ft 121 kts 310°
2026-04-23 08:38 33.66960 -116.25990 3727 ft 140 kts 333°
2026-04-23 08:38 33.67885 -116.26126 3992 ft 130 kts 358°
2026-04-23 08:38 33.68834 -116.25913 3942 ft 142 kts
2026-04-23 08:38 33.69820 -116.25875 3951 ft 139 kts 349°
2026-04-23 08:39 33.70440 -116.26566 4080 ft 136 kts 287°
2026-04-23 08:39 33.70426 -116.27766 3885 ft 139 kts 259°
2026-04-23 08:39 33.70222 -116.28768 2234 ft 98 kts 285°
2026-04-23 08:39 33.70198 -116.29675 1639 ft 122 kts 251°
2026-04-23 08:40 33.69644 -116.30477 1391 ft 118 kts 238°
2026-04-23 08:40 33.69494 -116.31420 1165 ft 117 kts 277°
2026-04-23 08:40 33.69572 -116.31933 1328 ft 105 kts 282°
2026-04-23 08:41 33.69580 -116.31976 1336 ft 105 kts 282°
2026-04-23 08:41 33.69853 -116.32856 1429 ft 119 kts 292°
2026-04-23 08:41 33.70339 -116.33577 1780 ft 95 kts 331°
2026-04-23 08:42 33.71030 -116.33297 1816 ft 112 kts 41°
2026-04-23 08:42 33.71237 -116.32505 2176 ft 104 kts 96°
2026-04-23 08:42 33.70863 -116.32022 2695 ft 85 kts 174°
2026-04-23 08:42 33.70555 -116.32451 2857 ft 78 kts 286°
2026-04-23 08:43 33.71045 -116.32568 3138 ft 96 kts 30°
2026-04-23 08:43 33.70872 -116.31948 3280 ft 105 kts 165°
2026-04-23 08:43 33.70092 -116.32199 3004 ft 123 kts 209°
2026-04-23 08:43 33.69339 -116.32724 2729 ft 134 kts 220°
2026-04-23 08:44 33.68969 -116.33693 2342 ft 130 kts 290°
2026-04-23 08:44 33.69564 -116.33580 2568 ft 120 kts 75°
2026-04-23 08:44 33.69050 -116.33087 2624 ft 109 kts 197°
2026-04-23 08:44 33.68671 -116.33745 2784 ft 101 kts 277°
2026-04-23 08:45 33.69346 -116.34128 2792 ft 119 kts
2026-04-23 08:45 33.69587 -116.33366 2807 ft 126 kts 131°
2026-04-23 08:45 33.68863 -116.33090 2884 ft 103 kts 197°
2026-04-23 08:45 33.68272 -116.33564 2822 ft 105 kts 230°
2026-04-23 08:46 33.68179 -116.34147 2611 ft 74 kts 330°
2026-04-23 08:46 33.68776 -116.34073 2187 ft 88 kts 19°
2026-04-23 08:46 33.69128 -116.33853 2081 ft 33 kts 38°
2026-04-23 08:46 33.69141 -116.33777 2068 ft 5 kts 25°
2026-04-23 08:47 33.69129 -116.33779 1979 ft 2 kts 20°
2026-04-23 08:47 33.69117 -116.33770 1897 ft 6 kts 20°
2026-04-23 08:47 33.69123 -116.33758 1923 ft 2 kts 15°
2026-04-23 08:47 33.69130 -116.33755 1935 ft 2 kts 15°
2026-04-23 08:48 33.69155 -116.33747 1915 ft 0 kts 18°
2026-04-23 08:57 33.69146 -116.33733 1942 ft 4 kts 19°
2026-04-23 08:57 33.69135 -116.33705 1960 ft 9 kts 284°
2026-04-23 08:58 33.69164 -116.33705 2097 ft 15 kts 286°
2026-04-23 08:58 33.69282 -116.33817 2401 ft 26 kts 301°
2026-04-23 08:58 33.69430 -116.34036 2999 ft 58 kts 270°
2026-04-23 08:58 33.69902 -116.34666 3002 ft 128 kts 317°
2026-04-23 08:59 33.70602 -116.35516 2877 ft 149 kts 307°
2026-04-23 08:59 33.71203 -116.36517 2888 ft 141 kts 301°
2026-04-23 08:59 33.71759 -116.37529 2753 ft 155 kts 305°
2026-04-23 08:59 33.72515 -116.38515 2526 ft 143 kts 304°
2026-04-23 09:00 33.73188 -116.39451 2345 ft 153 kts 310°
2026-04-23 09:00 33.73895 -116.40420 2056 ft 158 kts 308°
2026-04-23 09:00 33.74569 -116.41477 1988 ft 120 kts 294°
2026-04-23 09:00 33.75021 -116.42280 2282 ft 134 kts 302°
2026-04-23 09:01 33.75639 -116.43304 1679 ft 163 kts 307°
2026-04-23 09:01 33.76277 -116.44430 1293 ft 164 kts 303°
2026-04-23 09:01 33.76690 -116.45584 1288 ft 118 kts 282°
2026-04-23 09:01 33.76857 -116.46557 1406 ft 133 kts 289°
2026-04-23 09:02 33.77217 -116.47539 1484 ft 137 kts 322°
2026-04-23 09:02 33.77953 -116.48247 1308 ft 143 kts 320°
2026-04-23 09:02 33.78727 -116.49043 1010 ft 147 kts 314°
2026-04-23 09:02 33.79349 -116.50033 813 ft 151 kts 309°
2026-04-23 09:03 33.80007 -116.50952 622 ft 140 kts 324°
2026-04-23 09:03 33.80647 -116.51578 886 ft 108 kts 317°
2026-04-23 09:03 33.81161 -116.52202 881 ft 100 kts 315°
2026-04-23 09:03 33.81621 -116.52797 803 ft 87 kts 316°
2026-04-23 09:04 33.82073 -116.53257 764 ft 85 kts 319°
2026-04-23 09:04 33.82458 -116.53695 729 ft 69 kts 330°
2026-04-23 09:04 33.82848 -116.53931 774 ft 57 kts 331°
2026-04-23 09:04 33.83191 -116.54140 789 ft 56 kts 335°
2026-04-23 09:05 33.83533 -116.54325 655 ft 37 kts 345°
2026-04-23 09:05 33.83599 -116.54356 652 ft 1 kts
2026-04-23 09:05 33.83678 -116.54373 659 ft 23 kts 352°
2026-04-23 09:05 33.83819 -116.54412 573 ft 3 kts 356°
2026-04-23 09:06 33.83826 -116.54403 569 ft 5 kts
2026-04-23 09:06 33.83832 -116.54401 569 ft 5 kts 15°
2026-04-23 09:06 33.83844 -116.54396 565 ft 2 kts 49°
2026-04-23 09:06 33.83845 -116.54395 563 ft 0 kts 49°
2026-04-23 09:18 33.83841 -116.54377 666 ft 15 kts 40°
2026-04-23 09:19 33.83707 -116.53952 939 ft 85 kts 109°
2026-04-23 09:19 33.83478 -116.53107 1154 ft 126 kts 103°
2026-04-23 09:19 33.83112 -116.52069 1255 ft 141 kts 120°
2026-04-23 09:19 33.82694 -116.50820 766 ft 173 kts 111°
2026-04-23 09:20 33.82204 -116.49540 763 ft 161 kts 117°
2026-04-23 09:20 33.81692 -116.48478 1265 ft 123 kts 110°
2026-04-23 09:20 33.81399 -116.47674 1985 ft 101 kts 108°
2026-04-23 09:20 33.81150 -116.46807 2392 ft 114 kts 104°
2026-04-23 09:21 33.80966 -116.45912 2929 ft 113 kts 101°
2026-04-23 09:21 33.80781 -116.45285 3144 ft 125 kts 115°
2026-04-23 09:21 33.80214 -116.44432 3430 ft 124 kts 130°
2026-04-23 09:21 33.79902 -116.43426 3705 ft 133 kts 102°
2026-04-23 09:22 33.79323 -116.42446 3415 ft 160 kts 145°
2026-04-23 09:22 33.78337 -116.41794 3200 ft 164 kts 165°
2026-04-23 09:22 33.77267 -116.41258 2876 ft 170 kts 160°
2026-04-23 09:22 33.76270 -116.40560 2750 ft 164 kts 149°
2026-04-23 09:23 33.75466 -116.39515 2112 ft 180 kts 130°
2026-04-23 09:23 33.74804 -116.38260 1457 ft 183 kts 125°
2026-04-23 09:23 33.74027 -116.37052 676 ft 184 kts 140°
2026-04-23 09:23 33.73506 -116.36621 1748 ft 70 kts 219°
2026-04-23 09:24 33.73548 -116.36505 2615 ft 5 kts 324°
2026-04-23 09:24 33.73491 -116.36506 3565 ft 18 kts 166°
2026-04-23 09:24 33.73029 -116.36262 3550 ft 112 kts 137°
2026-04-23 09:24 33.72243 -116.35406 2140 ft 144 kts 138°
2026-04-23 09:25 33.71940 -116.34819 2818 ft 17 kts 144°
2026-04-23 09:25 33.71760 -116.34569 2506 ft 75 kts 135°
2026-04-23 09:25 33.71443 -116.33791 1319 ft 78 kts 115°
2026-04-23 09:25 33.71412 -116.33404 1123 ft 20 kts 287°
2026-04-23 09:26 33.71392 -116.33419 954 ft 5 kts 292°
2026-04-23 09:26 33.71361 -116.33450 794 ft 6 kts 294°
2026-04-23 09:26 33.71328 -116.33486 640 ft 7 kts 294°
2026-04-23 09:26 33.71315 -116.33425 452 ft 29 kts 89°
2026-04-23 09:27 33.71336 -116.33271 314 ft 3 kts 181°
2026-04-23 09:27 33.71332 -116.33271 213 ft 10 kts 212°
2026-04-23 09:27 33.71277 -116.33294 159 ft 5 kts 282°
2026-04-23 09:27 33.71288 -116.33367 113 ft 12 kts 286°
2026-04-23 09:28 33.71290 -116.33374 113 ft 0 kts 289°
2026-04-23 09:29 33.71301 -116.33390 247 ft 10 kts 67°
2026-04-23 09:29 33.71347 -116.33125 448 ft 62 kts 84°
2026-04-23 09:29 33.71086 -116.32603 630 ft 66 kts 123°
2026-04-23 09:30 33.71019 -116.31981 854 ft 81 kts 84°
2026-04-23 09:30 33.71029 -116.31284 928 ft 99 kts 91°
2026-04-23 09:30 33.70994 -116.30410 768 ft 117 kts 104°
2026-04-23 09:30 33.70643 -116.29495 640 ft 117 kts 126°
2026-04-23 09:31 33.70249 -116.28644 604 ft 111 kts 120°
2026-04-23 09:31 33.69915 -116.27833 563 ft 114 kts 123°
2026-04-23 09:31 33.69557 -116.26997 578 ft 107 kts 121°
2026-04-23 09:31 33.69114 -116.26187 337 ft 121 kts 137°
2026-04-23 09:32 33.68604 -116.25459 376 ft 116 kts 134°
2026-04-23 09:32 33.68145 -116.24761 404 ft 106 kts 150°
2026-04-23 09:32 33.67725 -116.24469 887 ft 48 kts 141°
2026-04-23 09:32 33.67537 -116.24120 1238 ft 51 kts 119°
2026-04-23 09:33 33.67485 -116.23725 1599 ft 43 kts 75°
2026-04-23 09:33 33.67605 -116.23484 1975 ft 26 kts 24°
2026-04-23 09:33 33.67732 -116.23459 2360 ft 13 kts 351°
2026-04-23 09:33 33.67794 -116.23481 2738 ft 6 kts 341°
2026-04-23 09:34 33.67836 -116.23496 3070 ft 7 kts 342°
2026-04-23 09:34 33.67903 -116.23519 3363 ft 13 kts 344°
2026-04-23 09:34 33.68001 -116.23556 3666 ft 16 kts 342°
2026-04-23 09:34 33.68096 -116.23592 3990 ft 13 kts 339°
2026-04-23 09:35 33.68169 -116.23621 4306 ft 11 kts 335°
2026-04-23 09:35 33.68239 -116.23661 4609 ft 11 kts 328°
2026-04-23 09:35 33.68286 -116.23693 4917 ft 5 kts 320°
2026-04-23 09:35 33.68315 -116.23722 5212 ft 8 kts 321°
2026-04-23 09:36 33.68301 -116.23687 5515 ft 28 kts 185°
2026-04-23 09:36 33.67831 -116.23100 5143 ft 141 kts 128°
2026-04-23 09:36 33.67112 -116.22021 4644 ft 177 kts 129°
2026-04-23 09:36 33.66338 -116.21013 4567 ft 133 kts 123°
2026-04-23 09:37 33.65777 -116.20126 3906 ft 76 kts 81°
2026-04-23 09:37 33.65497 -116.19259 2597 ft 146 kts 127°
2026-04-23 09:37 33.64802 -116.18196 1088 ft 174 kts 141°
2026-04-23 09:37 33.64348 -116.16959 407 ft 160 kts 113°
2026-04-23 09:38 33.63809 -116.16302 271 ft 84 kts 184°
2026-04-23 09:38 33.63373 -116.16376 172 ft 47 kts 236°
2026-04-23 09:38 33.63316 -116.16597 23 ft 9 kts 281°
2026-04-23 09:38 33.63373 -116.16759 -32 ft 26 kts 302°
2026-04-23 09:39 33.63418 -116.16787 -108 ft 2 kts 332°
2026-04-23 09:39 33.63439 -116.16792 -114 ft 0 kts 176°
2026-04-23 09:39 33.63439 -116.16791 -114 ft 0 kts 175°
2026-04-23 09:39 33.63439 -116.16790 -114 ft 1 kts 179°
2026-04-23 09:40 33.63440 -116.16790 -114 ft 0 kts 179°